THOR ABLESTAR DEB, 1435

Orbit data source: Space-Track

THOR ABLESTAR DEB, 1435 is space debris in LEO originally from a launch on Thu, 24 Jun 1965 UTC launched from the Air Force Western Test Range (AFWTR). Debris objects in space refer to the collection of defunct objects orbiting the Earth. Examples of debris include non-operational satellites, rocket bodies, and fragments generated from explosions, collisions, or faulty payload assembly.

Loading next visibility...
Identifier
1435, 1965-048D
Orbit
LEO
Last TLE update
21 hours ago
Origin
Manufacturer
Unknown
Mission
Spacecraft
Bus & Motor
Unknown
Mass
Unknown
Launch date (UTC)
1965-06-24 (60 years ago)
Launch vehicle
Unknown
Launch site
Air Force Western Test Range (AFWTR)
Object type
Payload
Rocket body
Debris
Shape & HBR
Unknown
Radar Cross Section
Small (<0.1 m²)

Expand to show TLE details & history

TLE from 21 hours ago
0 THOR ABLESTAR DEB
1 01435U 65048D   25181.84667530  .00000611  00000-0  64646-3 0  9999
2 01435  89.8898 294.3439 0056062 291.3495 199.1642 13.72799431978755
Epoch: 2025-06-30T20:19Z
TLE epoch observation values (Epoch: 2025-06-30T20:19:12.745Z)
Latitude
49.78959°
Longitude
-109.73951°
Altitude
1,036.574 km
Speed
7.319 km/s
True Right ascension
07h 36m 51s
True Declination
49° 37' 35"
Sunlit
Object was in daylight at epoch
Visualization orbit readout
Latitude
-18.88282°
Longitude
-109.58259°
Altitude
996.623 km
Speed
7.353 km/s
Apparent Right ascension
10h 31m 00s
Apparent Declination
-57° 44' 39"
Sunlit
Object is in daylight
Visualization observer readout
Local Sidereal Time
05:18:24
Azimuth
144° SSE
Elevation
-27.296°
Doppler factor
1
Orbital elements
Apogee altitude
1,027.842 km
Perigee altitude
945.266 km
Semi-major axis
7,364.691 km
Eccentricity
0.00561
Inclination
89.8898°
RAAN
294.3439°
Arg. of periapsis
291.3495°
True anomaly
Unknown
Mean anomaly
199.1642°
Eccentric anomaly
Unknown
Mean motion
3.43409 °/min
Orbital period
104.83 mins
BSTAR
0.00064646
Loading maneuver chart data...
Loading SW <> Apogee altitude chart data...

THOR ABLESTAR DEB Visibility forecast

Observer location: undefined°, undefined°

Span
Click to sort rows by Start time (UTC) header in descending order
Start Az.
Max El. time (UTC)
Max El. Az.
Max El.
End time (UTC)
End Az.
11 mins2025-07-01 19:00:46.648Z19.485° NNE2025-07-01 19:06:46.648Z90.189° ESE30.642°2025-07-01 19:11:46.648Z148.053° SSE
9 mins2025-07-01 20:46:46.648Z337.004° NNW2025-07-01 20:50:46.648Z288.451° WNW29.144°2025-07-01 20:55:46.648Z224.819° SW
8 mins2025-07-02 06:48:46.648Z121.898° SE2025-07-02 06:52:46.648Z69.125° E25.299°2025-07-02 06:56:46.648Z24.773° NE
10 mins2025-07-02 08:32:46.648Z212.521° SW2025-07-02 08:36:46.648Z273.652° WNW34.154°2025-07-02 08:42:46.648Z344.328° N
|